Regional Weather Roundup
Issued by NWS

Home | Current Version | Previous Version | Graphics & Text | Print | Product List | Glossary On
Versions: 1 2 3 4 5 6 7 8 9 10 11 12 13 14 15 16 17 18 19 20 21 22 23 24 25 26 27 28 29 30 31 32 33 34 35 36 37 38 39 40 41 42 43 44 45 46 47 48 49 50
000
ASUS43 KFSD 220410
RWRSD

WEATHER ROUNDUP FOR SOUTH DAKOTA
NATIONAL WEATHER SERVICE SIOUX FALLS SD
1100 PM CDT SAT OCT 21 2017

NOTE: "FAIR" INDICATES FEW OR NO CLOUDS BELOW 12,000 FEET WITH NO
SIGNIFICANT WEATHER AND/OR OBSTRUCTIONS TO VISIBILITY.


SDZ001>005-009-010-012>017-220500-
NORTHWEST AND NORTH CENTRAL SOUTH DAKOTA

CITY           SKY/WX    TMP DP  RH WIND       PRES   REMARKS
BUFFALO          N/A     36  22  56 W8        29.86R
MOBRIDGE       PTCLDY    48  32  53 W7        29.86R
$$

SDZ012>016-024>037-041>051-057-063-072>074-220500-
SOUTHWEST AND SOUTH CENTRAL SOUTH DAKOTA

CITY           SKY/WX    TMP DP  RH WIND       PRES   REMARKS
RAPID CTY ARPT CLEAR     34  17  50 W6        29.98R WCI  29
PIERRE         CLEAR     46  32  58 W12       29.92R
CUSTER         CLEAR     33  10  38 W5        30.00R WCI  29
PHILIP         CLEAR     39  28  64 W8        29.96R
PINE RIDGE     CLEAR     33  20  58 W3        30.02R
SPEARFISH      FAIR      36  18  48 SW8       29.98R
WINNER         FAIR      43  30  60 W8        29.95F
$$

SDZ004>011-016>023-039-040-220500-
NORTHEAST SOUTH DAKOTA

CITY           SKY/WX    TMP DP  RH WIND       PRES   REMARKS
ABERDEEN       CLOUDY    45  39  79 SW8       29.85R
WATERTOWN      CLEAR     45  40  82 W12       29.84R
BROOKINGS      CLEAR     43  37  79 SW6       29.89R
SISSETON         N/A     51  41  68 W14       29.79R
$$

SDZ017-020-022-023-036>040-048>070-220500-
SOUTHEAST SOUTH DAKOTA

CITY           SKY/WX    TMP DP  RH WIND       PRES   REMARKS
SIOUX FALLS    CLEAR     47  39  74 SW5       29.92R
HURON          PTCLDY    44  37  76 SW6       29.90R
CHAMBERLAIN    CLEAR     43  36  75 W5        29.93F
MITCHELL       CLEAR     45  36  70 W7        29.91F
YANKTON        CLEAR     44  36  73 S5        29.96R
$$

ABBREVIATIONS USED IN REMARKS
   TC - TEMPERATURE IN CELSIUS
  WCI - WIND CHILL INDEX
   HX - HEAT INDEX
  VSB - VISIBILITY





USA.gov is the U.S. government's official web portal to all federal, state and local government web resources and services.